Location: Rodson Ranch
(38.7188°N, 119.3202°W)
Time: 17:28:31
(UTC+00:00)

Meteor 1-24 Rocket - Pass Details

Date: 29 October 2020
Orbit: 791 x 926 km, 81.3° (Epoch: 23 November)

Event Time Altitude Azimuth Distance (km) Brightness Sun altitude
Rises 12:07:08 0° 177° (S) 3,367 6.8 -26.7°
Reaches altitude 10° 12:09:30 10° 174° (S) 2,456 6.1 -26.3°
Maximum altitude 12:15:00 62° 95° (E) 973 4.2 -25.2°
Drops below altitude 10° 12:20:44 10° 16° (NNE) 2,563 6.4 -24.1°
Sets 12:23:16 0° 13° (NNE) 3,525 7.1 -23.6°
